SCP
-0 -0 -0 -0 -0 0 0 0 -0 -0 -0 -0 -0 -0 -0 -0 -0 -0 -0 -0 -0 0 -0 -0 -0 0 0 0 0 0 0 0 0 0 0 0 0 0 0 0 0 0 0
-0 0 -0 -0 -0 -0 0 0 -0 -0 -0 -0 -0 0 0 -0 -0 0 0 0 0 -0 -0 0 -0 0 0 0 0 0 0 0 0 0 0 0 0 0 0 0 0 0 0
-0 -0 -0 -0 -0 -0 -0 0 -0 -0 -0 -0 -0 0 0 0 0 -0 0 0 -0 -0 -0 -0 0 0 0 0 0 0 0 0 0 0 0 0 0 0 0 0 0 0 0
-0 -0 -0 -0 -0 -0 -0 -0 -0 -0 -0 -0 -0 0 -0 -0 -0 -0 0 -0 -0 0 0 0 0 0 0 0 0 0 0 0 0 0 0 0 0 0 0 0 0 0 0
-0 -0 -0 -0 -0 -0 -0 -0 -0 -0 -0 -0 -0 -0 -0 -0 0 0 0 0 0 0 0 0 0 0 0 0 0 0 0 0 0 0 0 0 0 0 0 0 0 0 0
-0 -0 -0 -0 -0 -0 -0 -0 -0 -0 -0 -0 -0 -0 0 0 0 0 0 0 0 0 0 0 0 0 0 0 0 0 0 0 0 0 0 0 0 0 0 0 0 0 0
0 0 0 -0 -0 -0 -0 -0 -0 -0 0 0 0 0 0 0 0 0 0 0 0 0 0 0 0 0 0 0 0 0 0 0 0 0 0 0 0 0 0 0 0 0 0
0 0 0 0 0 0 -0 -0 -0 -0 0 0 0 0 0 0 0 0 0 0 0 0 0 0 0 0 0 0 0 0 0 0 0 0 0 0 0 0 0 0 0 0 0
0 0 0 0 0 0 0 0 0 0 0 0 0 0 0 0 0 0 0 0 0 0 0 0 0 0 0 0 0 0 0 0 0 0 0 0 0 0 0 0 0 0 0
0 0 0 0 0 0 0 0 0 0 0 0 0 0 0 0 0 0 0 0 0 0 0 0 0 0 0 0 0 0 0 0 0 0 0 0 0 0 0 0 0 0 0
0 0 0 0 0 0 0 0 0 0 0 0 0 0 0 0 0 0 0 0 0 0 0 0 0 0 0 0 0 0 0 0 0 0 0 0 0 0 0 0 0 0 0
0 0 0 0 0 0 0 0 0 0 0 0 0 0 0 0 0 0 0 0 0 0 0 0 0 0 0 0 0 0 0 0 0 0 0 0 0 0 0 0 0 0 0
0 0 0 0 0 0 0 0 0 0 0 0 0 0 0 0 0 0 0 0 0 0 0 0 0 0 0 0 0 0 0 0 0 0 0 0 0 0 0 0 0 0 0
0 0 0 0 0 0 0 0 0 0 0 0 0 0 0 0 0 0 0 0 0 0 0 0 0 0 0 0 0 0 0 0 0 0 0 0 0 0 0 0 0 0 0
0 0 0 0 0 0 0 0 0 0 0 0 0 0 0 0 0 0 0 0 0 0 0 0 0 0 0 0 0 0 0 0 0 0 0 0 0 0 0 0 0 0 0
0 0 0 0 0 0 0 0 0 0 0 0 0 0 0 0 0 0 0 0 0 0 0 0 0 0 0 0 0 0 0 0 0 0 0 0 0 0 0 0 0 0 0
0 0 0 0 0 0 0 0 0 0 0 0 0 0 0 0 0 0 0 0 0 0 0 0 0 0 0 0 0 0 0 0 0 0 0 0 0 0 0 0 0 0 0
0 0 0 0 0 0 0 0 0 0 0 0 0 0 0 0 0 0 0 0 0 0 0 0 0 0 0 0 0 0 0 0 0 0 0 0 0 0 0 0 0 0 0
0 0 0 0 0 0 0 0 0 0 0 0 0 0 0 0 0 0 0 0 0 0 0 0 0 0 0 0 0 0 0 0 0 0 0 0 0 0 0 0 0 0 0
0 0 0 0 0 0 0 0 0 0 0 0 0 0 0 0 0 0 0 0 0 0 0 0 0 0 0 0 0 0 0 0 0 0 0 0 0 0 0 0 0 0 0
0 0 0 0 0 0 0 0 0 0 0 0 0 0 0 0 0 0 0 0 0 0 0 0 0 0 0 0 0 0 0 0 0 0 0 0 0 0 0 0 0 0 0
0 0 0 0 0 0 0 0 0 0 0 0 0 0 0 0 0 0 0 0 0 0 0 0 0 0 0 0 0 0 0 0 0 0 0 0 0 0 0 0 0 0 0
0 0 0 0 0 0 0 0 0 0 0 0 0 0 0 0 0 0 0 0 0 0 0 0 0 0 0 0 0 0 0 0 0 0 0 0 0 0 0 0 0 0 0
0 0 0 0 0 0 0 0 0 0 0 0 0 0 0 0 0 0 0 0 0 0 0 0 0 0 0 0 0 0 0 0 0 0 0 0 0 0 0 0 0 0 0
0 0 0 0 0 0 0 0 0 0 0 0 0 0 0 0 0 0 0 0 0 0 0 0 0 0 0 0 0 0 0 0 0 0 0 0 0 0 0 0 0 0 0
0 0 0 0 0 0 0 0 0 0 0 0 0 0 0 0 0 0 0 0 0 0 0 0 0 0 0 0 0 0 0 0 0 0 0 0 0 0 0 0 0 0 0
Wind_Speed_500mb
22 15 7 7 6 13 17 19 18 18 20 21 23 25 27 27 25 24 20 23 23 28 23 20 23 20 18 22 24 27 23 27 30 33 32 30 29 38 33 36 40 39 41
27 20 12 8 4 16 20 18 17 18 19 22 24 25 27 26 24 22 24 27 24 21 20 23 24 28 26 25 26 27 26 29 32 35 33 34 38 38 36 40 39 36 32
24 20 14 10 6 16 20 17 17 18 20 23 24 25 25 25 22 20 23 25 20 21 25 26 26 28 29 28 25 25 29 29 32 33 32 33 39 41 37 38 38 43 39
18 19 15 8 7 15 18 15 16 17 18 21 23 24 25 22 18 19 24 20 22 24 26 26 27 26 25 27 24 31 31 29 32 35 34 38 41 46 39 41 41 47 40
17 18 16 7 1 13 14 17 15 16 18 21 24 24 25 22 19 20 22 24 25 25 25 25 26 25 26 24 30 32 32 33 36 36 37 40 45 44 39 41 45 51 44
17 16 13 7 4 13 15 18 16 15 19 22 24 26 25 22 19 18 22 22 23 25 25 25 25 26 25 28 30 33 35 37 36 36 37 44 48 38 42 46 50 57 58
18 13 10 7 7 12 19 18 15 17 19 21 23 27 27 22 14 14 18 21 20 20 22 22 24 26 26 28 31 32 36 38 39 39 41 49 50 47 47 49 48 51 53
15 11 9 7 10 14 21 17 14 16 19 22 23 22 24 20 15 12 12 18 19 19 21 20 22 24 24 28 30 32 34 36 40 48 49 51 45 49 51 50 52 54 55
14 10 9 9 12 19 22 17 13 15 17 19 21 20 20 16 14 10 8 9 16 17 15 17 20 23 23 27 29 31 31 36 48 53 50 46 41 42 44 43 44 44 47
16 14 11 12 13 21 14 9 11 13 16 18 20 21 17 14 11 9 7 4 7 9 12 14 20 21 22 24 28 34 34 38 54 62 53 45 43 41 40 39 39 38 40
19 15 13 16 21 14 10 9 10 13 16 19 20 20 19 16 12 10 6 2 4 6 9 11 17 21 21 21 29 31 32 38 37 40 49 40 43 42 37 36 33 39 31
20 17 16 19 14 12 10 10 10 13 15 18 19 19 18 16 12 7 5 4 6 5 8 10 16 19 21 23 27 28 27 27 26 24 34 35 36 38 39 40 35 38 42
20 18 16 17 17 12 10 9 11 13 15 18 19 18 17 15 13 7 2 5 5 7 9 10 15 19 23 24 23 24 23 20 19 19 25 24 30 32 38 41 51 55 58
23 21 18 17 18 15 13 12 14 15 17 18 19 18 16 14 12 7 2 8 8 10 11 13 17 21 21 22 20 22 22 23 21 19 20 19 30 44 40 47 51 55 55
26 25 22 19 20 16 15 16 17 17 17 16 16 17 15 13 9 5 1 10 13 16 16 18 20 19 19 18 20 19 21 22 21 22 22 19 22 34 47 50 53 54 53
31 28 25 23 23 22 20 18 20 22 22 21 21 21 17 12 8 5 3 9 15 20 23 24 20 18 17 13 12 19 18 19 21 21 18 19 16 18 34 50 53 55 55
36 32 31 29 29 29 25 24 22 23 24 24 24 24 19 15 10 4 5 2 17 23 27 29 24 22 16 10 11 12 11 14 17 23 23 20 19 16 16 35 51 52 54
44 41 38 35 33 33 30 27 26 28 28 27 27 26 20 15 9 5 2 3 2 13 22 31 28 26 21 15 10 11 11 13 14 21 24 20 21 22 19 21 29 48 51
48 47 44 45 44 38 34 32 31 33 31 30 29 26 21 16 12 9 8 6 4 10 21 31 36 32 25 23 16 15 9 8 10 17 21 23 24 24 24 24 23 28 47
57 57 55 49 47 43 40 38 38 39 37 33 34 26 22 18 15 12 11 10 9 13 20 34 38 39 34 28 23 24 17 10 5 12 16 21 21 22 25 28 28 31 30
60 60 58 55 53 51 48 44 41 42 39 35 33 24 23 20 19 17 17 14 12 13 21 31 42 46 40 34 29 23 19 12 6 6 9 12 15 19 22 24 28 30 34
65 63 58 57 57 54 50 46 45 43 42 35 32 29 25 22 21 20 18 17 15 16 23 33 48 50 44 40 35 21 17 8 7 5 5 4 10 15 17 21 24 28 29
66 64 60 59 60 58 52 49 50 47 46 41 38 40 32 25 23 21 19 18 17 18 24 34 49 54 51 47 40 20 14 15 21 10 9 6 8 10 13 17 20 23 27
63 57 55 53 55 56 55 56 55 54 50 43 43 41 43 30 27 25 22 21 22 23 25 32 45 59 57 53 47 42 28 16 20 16 18 14 11 9 10 12 15 19 23
65 58 53 50 52 55 58 59 58 57 51 48 46 45 46 36 32 29 26 26 26 26 28 31 35 52 64 61 58 53 46 35 33 22 22 28 21 15 10 9 11 14 17
60 59 54 52 51 53 58 60 60 59 55 54 50 48 47 37 35 32 29 29 29 28 29 32 36 43 54 61 62 60 56 53 50 48 32 37 29 21 13 8 5 5 8
Wind_Direction_500mb
175 170 170 131 34 33 28 26 21 20 15 12 12 9 5 3 3 13 33 50 44 46 36 28 28 27 35 38 40 47 38 42 44 35 35 43 44 35 19 10 6 2 353
171 168 173 162 18 28 19 22 21 11 15 10 13 12 9 6 7 31 39 56 50 42 33 31 35 44 47 53 57 47 38 43 38 34 43 44 48 38 19 13 4 358 346
171 169 166 164 28 16 14 18 21 12 13 10 8 12 14 11 14 38 57 59 50 41 42 40 44 49 55 55 51 40 40 42 35 41 50 43 46 40 18 11 11 4 0
167 170 173 177 35 2 10 17 15 8 12 10 6 13 15 17 26 55 66 65 55 49 42 44 51 51 51 51 40 39 38 43 44 47 55 50 43 40 20 19 16 10 9
170 176 174 169 347 343 2 8 5 1 6 10 5 10 20 22 28 57 63 62 58 47 43 45 50 46 48 42 42 43 48 56 53 54 58 47 44 36 27 25 20 17 18
172 167 189 204 315 342 350 357 352 1 3 5 6 7 19 26 42 57 64 62 58 47 51 50 52 50 47 47 47 47 60 62 61 63 58 48 44 34 34 33 32 29 33
164 166 191 232 286 325 326 344 346 356 0 3 9 9 11 27 41 54 63 57 58 53 60 57 54 51 51 49 50 56 68 71 69 66 60 51 48 46 39 43 41 39 42
164 182 220 248 294 307 307 330 342 353 358 2 6 13 9 16 22 36 50 65 58 59 65 58 54 51 48 54 57 69 76 78 75 69 61 57 50 50 48 48 52 51 52
191 202 220 263 285 290 305 320 338 350 359 4 6 11 7 12 20 31 37 49 68 62 70 55 53 55 55 62 68 84 88 89 83 71 65 57 51 50 55 53 50 52 51
203 211 231 261 284 295 297 309 330 348 1 3 7 6 7 7 11 10 26 41 50 51 66 64 57 62 65 69 80 82 91 91 85 77 68 61 56 55 48 48 46 47 48
209 220 241 266 289 290 292 313 332 351 358 3 2 1 358 351 352 357 11 85 81 71 66 76 71 68 73 81 93 96 96 86 88 83 71 58 52 49 44 40 32 33 28
210 221 237 270 284 291 299 314 335 349 354 354 353 352 353 351 344 350 18 142 120 96 83 94 77 79 85 91 100 102 95 90 83 81 80 66 52 40 39 36 24 26 37
222 225 240 265 287 286 287 309 325 338 343 348 348 350 351 351 347 341 325 182 143 130 109 111 100 96 97 93 93 93 95 91 79 63 59 57 64 56 47 40 50 53 56
221 227 239 258 281 290 292 305 316 325 332 341 342 342 341 338 336 335 228 190 160 146 132 134 120 110 106 101 97 99 96 92 85 70 62 55 68 69 61 56 54 56 59
224 232 239 254 274 284 290 300 307 310 315 325 334 334 331 331 328 325 234 187 166 150 143 146 134 128 118 116 113 99 90 79 70 61 51 51 61 68 63 59 58 58 54
227 239 240 251 264 277 284 295 302 305 310 317 324 325 321 316 308 301 251 193 175 157 150 154 145 133 129 141 121 93 77 57 40 35 36 35 43 60 69 62 61 60 56
230 240 246 253 261 269 272 285 294 300 303 306 314 317 314 312 305 325 335 236 184 155 155 164 163 164 166 157 124 108 83 72 42 30 32 46 47 46 57 81 67 62 59
235 242 243 247 250 265 271 277 286 290 298 302 305 308 304 307 302 303 316 347 108 162 168 179 187 184 178 169 157 132 117 74 52 37 35 50 56 62 63 61 85 68 62
237 241 246 248 249 258 265 273 280 285 291 299 301 300 296 294 291 275 264 254 233 183 177 188 193 199 197 183 183 149 130 97 44 38 34 47 57 64 67 66 53 74 66
240 241 245 246 250 254 258 262 268 276 284 292 298 287 286 284 278 271 270 256 246 213 180 191 202 200 202 204 183 149 135 104 55 48 25 46 61 69 72 72 68 56 60
243 245 247 247 247 252 255 257 263 272 274 287 298 293 280 278 271 266 270 269 257 227 197 196 203 206 199 208 201 154 136 109 101 54 29 57 67 71 73 71 66 61 54
248 249 247 248 249 247 249 254 258 265 269 275 283 294 281 271 266 267 266 262 250 231 210 201 210 203 206 210 205 191 154 131 161 119 326 96 89 82 76 71 67 64 59
248 248 249 248 248 249 248 247 251 255 260 267 277 286 288 269 265 263 261 253 241 229 212 208 210 217 217 210 212 204 185 196 188 178 202 176 125 109 89 78 69 64 57
253 250 249 247 246 250 244 242 247 255 264 271 278 280 287 268 264 262 255 245 237 228 216 208 209 214 219 222 222 230 242 241 193 190 198 187 170 149 121 95 77 63 55
252 251 250 249 246 247 244 246 249 253 261 266 269 277 286 266 261 258 256 249 240 228 219 217 215 215 220 222 229 234 242 246 246 233 205 200 189 182 163 112 76 59 51
252 246 249 248 248 244 245 248 250 253 257 259 267 272 279 269 262 262 261 252 242 233 226 224 221 219 220 225 231 237 243 247 249 239 226 203 199 197 186 150 110 63 46
Wind_Speed_850mb
22 15 7 7 6 13 17 19 18 18 20 21 23 25 27 27 25 24 20 23 23 28 23 20 23 20 18 22 24 27 23 27 30 33 32 30 29 38 33 36 40 39 41
27 20 12 8 4 16 20 18 17 18 19 22 24 25 27 26 24 22 24 27 24 21 20 23 24 28 26 25 26 27 26 29 32 35 33 34 38 38 36 40 39 36 32
24 20 14 10 6 16 20 17 17 18 20 23 24 25 25 25 22 20 23 25 20 21 25 26 26 28 29 28 25 25 29 29 32 33 32 33 39 41 37 38 38 43 39
18 19 15 8 7 15 18 15 16 17 18 21 23 24 25 22 18 19 24 20 22 24 26 26 27 26 25 27 24 31 31 29 32 35 34 38 41 46 39 41 41 47 40
17 18 16 7 1 13 14 17 15 16 18 21 24 24 25 22 19 20 22 24 25 25 25 25 26 25 26 24 30 32 32 33 36 36 37 40 45 44 39 41 45 51 44
17 16 13 7 4 13 15 18 16 15 19 22 24 26 25 22 19 18 22 22 23 25 25 25 25 26 25 28 30 33 35 37 36 36 37 44 48 38 42 46 50 57 58
18 13 10 7 7 12 19 18 15 17 19 21 23 27 27 22 14 14 18 21 20 20 22 22 24 26 26 28 31 32 36 38 39 39 41 49 50 47 47 49 48 51 53
15 11 9 7 10 14 21 17 14 16 19 22 23 22 24 20 15 12 12 18 19 19 21 20 22 24 24 28 30 32 34 36 40 48 49 51 45 49 51 50 52 54 55
14 10 9 9 12 19 22 17 13 15 17 19 21 20 20 16 14 10 8 9 16 17 15 17 20 23 23 27 29 31 31 36 48 53 50 46 41 42 44 43 44 44 47
16 14 11 12 13 21 14 9 11 13 16 18 20 21 17 14 11 9 7 4 7 9 12 14 20 21 22 24 28 34 34 38 54 62 53 45 43 41 40 39 39 38 40
19 15 13 16 21 14 10 9 10 13 16 19 20 20 19 16 12 10 6 2 4 6 9 11 17 21 21 21 29 31 32 38 37 40 49 40 43 42 37 36 33 39 31
20 17 16 19 14 12 10 10 10 13 15 18 19 19 18 16 12 7 5 4 6 5 8 10 16 19 21 23 27 28 27 27 26 24 34 35 36 38 39 40 35 38 42
20 18 16 17 17 12 10 9 11 13 15 18 19 18 17 15 13 7 2 5 5 7 9 10 15 19 23 24 23 24 23 20 19 19 25 24 30 32 38 41 51 55 58
23 21 18 17 18 15 13 12 14 15 17 18 19 18 16 14 12 7 2 8 8 10 11 13 17 21 21 22 20 22 22 23 21 19 20 19 30 44 40 47 51 55 55
26 25 22 19 20 16 15 16 17 17 17 16 16 17 15 13 9 5 1 10 13 16 16 18 20 19 19 18 20 19 21 22 21 22 22 19 22 34 47 50 53 54 53
31 28 25 23 23 22 20 18 20 22 22 21 21 21 17 12 8 5 3 9 15 20 23 24 20 18 17 13 12 19 18 19 21 21 18 19 16 18 34 50 53 55 55
36 32 31 29 29 29 25 24 22 23 24 24 24 24 19 15 10 4 5 2 17 23 27 29 24 22 16 10 11 12 11 14 17 23 23 20 19 16 16 35 51 52 54
44 41 38 35 33 33 30 27 26 28 28 27 27 26 20 15 9 5 2 3 2 13 22 31 28 26 21 15 10 11 11 13 14 21 24 20 21 22 19 21 29 48 51
48 47 44 45 44 38 34 32 31 33 31 30 29 26 21 16 12 9 8 6 4 10 21 31 36 32 25 23 16 15 9 8 10 17 21 23 24 24 24 24 23 28 47
57 57 55 49 47 43 40 38 38 39 37 33 34 26 22 18 15 12 11 10 9 13 20 34 38 39 34 28 23 24 17 10 5 12 16 21 21 22 25 28 28 31 30
60 60 58 55 53 51 48 44 41 42 39 35 33 24 23 20 19 17 17 14 12 13 21 31 42 46 40 34 29 23 19 12 6 6 9 12 15 19 22 24 28 30 34
65 63 58 57 57 54 50 46 45 43 42 35 32 29 25 22 21 20 18 17 15 16 23 33 48 50 44 40 35 21 17 8 7 5 5 4 10 15 17 21 24 28 29
66 64 60 59 60 58 52 49 50 47 46 41 38 40 32 25 23 21 19 18 17 18 24 34 49 54 51 47 40 20 14 15 21 10 9 6 8 10 13 17 20 23 27
63 57 55 53 55 56 55 56 55 54 50 43 43 41 43 30 27 25 22 21 22 23 25 32 45 59 57 53 47 42 28 16 20 16 18 14 11 9 10 12 15 19 23
65 58 53 50 52 55 58 59 58 57 51 48 46 45 46 36 32 29 26 26 26 26 28 31 35 52 64 61 58 53 46 35 33 22 22 28 21 15 10 9 11 14 17
60 59 54 52 51 53 58 60 60 59 55 54 50 48 47 37 35 32 29 29 29 28 29 32 36 43 54 61 62 60 56 53 50 48 32 37 29 21 13 8 5 5 8
Wind_Direction_850mb
175 170 170 131 34 33 28 26 21 20 15 12 12 9 5 3 3 13 33 50 44 46 36 28 28 27 35 38 40 47 38 42 44 35 35 43 44 35 19 10 6 2 353
171 168 173 162 18 28 19 22 21 11 15 10 13 12 9 6 7 31 39 56 50 42 33 31 35 44 47 53 57 47 38 43 38 34 43 44 48 38 19 13 4 358 346
171 169 166 164 28 16 14 18 21 12 13 10 8 12 14 11 14 38 57 59 50 41 42 40 44 49 55 55 51 40 40 42 35 41 50 43 46 40 18 11 11 4 0
167 170 173 177 35 2 10 17 15 8 12 10 6 13 15 17 26 55 66 65 55 49 42 44 51 51 51 51 40 39 38 43 44 47 55 50 43 40 20 19 16 10 9
170 176 174 169 347 343 2 8 5 1 6 10 5 10 20 22 28 57 63 62 58 47 43 45 50 46 48 42 42 43 48 56 53 54 58 47 44 36 27 25 20 17 18
172 167 189 204 315 342 350 357 352 1 3 5 6 7 19 26 42 57 64 62 58 47 51 50 52 50 47 47 47 47 60 62 61 63 58 48 44 34 34 33 32 29 33
164 166 191 232 286 325 326 344 346 356 0 3 9 9 11 27 41 54 63 57 58 53 60 57 54 51 51 49 50 56 68 71 69 66 60 51 48 46 39 43 41 39 42
164 182 220 248 294 307 307 330 342 353 358 2 6 13 9 16 22 36 50 65 58 59 65 58 54 51 48 54 57 69 76 78 75 69 61 57 50 50 48 48 52 51 52
191 202 220 263 285 290 305 320 338 350 359 4 6 11 7 12 20 31 37 49 68 62 70 55 53 55 55 62 68 84 88 89 83 71 65 57 51 50 55 53 50 52 51
203 211 231 261 284 295 297 309 330 348 1 3 7 6 7 7 11 10 26 41 50 51 66 64 57 62 65 69 80 82 91 91 85 77 68 61 56 55 48 48 46 47 48
209 220 241 266 289 290 292 313 332 351 358 3 2 1 358 351 352 357 11 85 81 71 66 76 71 68 73 81 93 96 96 86 88 83 71 58 52 49 44 40 32 33 28
210 221 237 270 284 291 299 314 335 349 354 354 353 352 353 351 344 350 18 142 120 96 83 94 77 79 85 91 100 102 95 90 83 81 80 66 52 40 39 36 24 26 37
222 225 240 265 287 286 287 309 325 338 343 348 348 350 351 351 347 341 325 182 143 130 109 111 100 96 97 93 93 93 95 91 79 63 59 57 64 56 47 40 50 53 56
221 227 239 258 281 290 292 305 316 325 332 341 342 342 341 338 336 335 228 190 160 146 132 134 120 110 106 101 97 99 96 92 85 70 62 55 68 69 61 56 54 56 59
224 232 239 254 274 284 290 300 307 310 315 325 334 334 331 331 328 325 234 187 166 150 143 146 134 128 118 116 113 99 90 79 70 61 51 51 61 68 63 59 58 58 54
227 239 240 251 264 277 284 295 302 305 310 317 324 325 321 316 308 301 251 193 175 157 150 154 145 133 129 141 121 93 77 57 40 35 36 35 43 60 69 62 61 60 56
230 240 246 253 261 269 272 285 294 300 303 306 314 317 314 312 305 325 335 236 184 155 155 164 163 164 166 157 124 108 83 72 42 30 32 46 47 46 57 81 67 62 59
235 242 243 247 250 265 271 277 286 290 298 302 305 308 304 307 302 303 316 347 108 162 168 179 187 184 178 169 157 132 117 74 52 37 35 50 56 62 63 61 85 68 62
237 241 246 248 249 258 265 273 280 285 291 299 301 300 296 294 291 275 264 254 233 183 177 188 193 199 197 183 183 149 130 97 44 38 34 47 57 64 67 66 53 74 66
240 241 245 246 250 254 258 262 268 276 284 292 298 287 286 284 278 271 270 256 246 213 180 191 202 200 202 204 183 149 135 104 55 48 25 46 61 69 72 72 68 56 60
243 245 247 247 247 252 255 257 263 272 274 287 298 293 280 278 271 266 270 269 257 227 197 196 203 206 199 208 201 154 136 109 101 54 29 57 67 71 73 71 66 61 54
248 249 247 248 249 247 249 254 258 265 269 275 283 294 281 271 266 267 266 262 250 231 210 201 210 203 206 210 205 191 154 131 161 119 326 96 89 82 76 71 67 64 59
248 248 249 248 248 249 248 247 251 255 260 267 277 286 288 269 265 263 261 253 241 229 212 208 210 217 217 210 212 204 185 196 188 178 202 176 125 109 89 78 69 64 57
253 250 249 247 246 250 244 242 247 255 264 271 278 280 287 268 264 262 255 245 237 228 216 208 209 214 219 222 222 230 242 241 193 190 198 187 170 149 121 95 77 63 55
252 251 250 249 246 247 244 246 249 253 261 266 269 277 286 266 261 258 256 249 240 228 219 217 215 215 220 222 229 234 242 246 246 233 205 200 189 182 163 112 76 59 51
252 246 249 248 248 244 245 248 250 253 257 259 267 272 279 269 262 262 261 252 242 233 226 224 221 219 220 225 231 237 243 247 249 239 226 203 199 197 186 150 110 63 46